Showing default

QIANFAN-38, 62239

Orbit data source: Space-Track

QIANFAN-38, 62239 is a Chinese payload satellite in LEO that was launched on Thu, 05 Dec 2024 UTC via a CHANG ZHENG 6A launch vehicle from the Taiyaun Space Center, China (TSC). Payload-class satellites include a variety of spacecraft equipped with specific instruments for various scientific and technological missions. These include communications satellites like Starlink; space stations such as the ISS; scientific satellites like the Hubble; Earth observation satellites from companies like Planet Labs, Umbra, and HawkEye 360; GPS; miniature CubeSats for education and research; and military/defense satellites.

Loading next visibility...
Identifier
62239, 2024-232C
Orbit
LEO
Country
Flag of CNCN / PRC
Related business
Manufacturer
SECM
Mission
Operational Commercial Communications
Bus & Motor
QIANFAN, Unknown motor
Mass
267 kg wet, ~267 kg dry
Launch date (UTC)
2024-12-05 (9 months ago)
Launch vehicle
CHANG ZHENG 6A
Launch site
Taiyaun Space Center, China (TSC)
Object type
Payload
Rocket body
Debris
Shape & HBR
Box + 1 Pan, 5.0 m
Radar Cross Section
13.200 m², Large (>1 m²)

Expand to show TLE details & history
Last TLE update: 11 hours ago

TLE from 11 hours ago
0 QIANFAN-38
1 62239U 24232C   25242.88230124  .00000075  00000-0  96550-4 0  9999
2 62239  88.9947  51.7240 0016052 130.8996 229.3549 13.50965147 85208
Epoch: 2025-08-30T21:10Z
TLE epoch observation values (Epoch: 2025-08-30T21:10:30.827Z)
Latitude
0.00006°
Longitude
114.78533°
Altitude
1,079.462 km
Speed
7.309 km/s
True Right ascension
03h 26m 53s
True Declination
0° 00' 00"
Sunlit
Object was in daylight at epoch
Visualization orbit readout
Latitude
Unknown
Longitude
Unknown
Altitude
Unknown
Speed
Unknown
Apparent Right ascension
Unknown
Apparent Declination
Unknown
Sunlit
N/A
Visualization observer readout
Local Sidereal Time
23:58:11
Azimuth
Unknown
Elevation
Unknown
Doppler factor
Unknown
Orbital elements
Apogee altitude
1,077.71 km
Perigee altitude
1,053.812 km
Semi-major axis
7,443.898 km
Eccentricity
0.00161
Inclination
88.9947°
RAAN
51.724°
Arg. of periapsis
130.8996°
True anomaly
229.21551°
Mean anomaly
229.3549°
Eccentric anomaly
229.28519°
Mean motion
3.37942 °/min
Orbital period
106.53 mins
BSTAR
0.00009655
Loading maneuver chart data...
Computing Atmospheric mass density...
Loading historical data...
Loading historical data...
Loading historical data...
Loading historical data...
Loading historical data...
Loading historical data...
Loading historical data...

Documentation

Showing up to 5 results
|